Cloud_Cover
100 100 100 100 100 100 100 100 100 100 100 100 100 100 100 100 100 100 100 100 90 75 89 59 34 5 5 89 31 18 5 20 89 93 0 6 7 5 3 0 1 0 0
100 100 100 100 100 100 100 100 100 100 100 100 100 100 100 100 100 94 82 100 100 59 5 3 4 5 5 5 5 5 0 5 58 99 11 0 0 5 5 0 0 0 0
100 100 100 100 100 100 100 100 100 100 100 100 100 100 81 91 93 100 100 100 100 100 62 20 5 1 3 5 2 0 0 0 11 8 22 12 1 0 0 0 0 0 0
100 100 100 100 100 100 100 100 100 100 100 100 100 100 100 100 94 86 97 100 100 100 80 25 42 5 18 4 4 4 4 12 20 22 14 43 59 70 55 8 0 0 0
100 100 100 100 100 100 100 100 100 100 100 100 100 100 100 100 100 100 100 100 99 100 40 5 5 2 3 4 5 5 17 56 99 99 74 94 100 93 100 92 70 12 0
100 100 100 100 100 100 100 100 100 100 100 100 100 100 100 100 100 100 100 100 100 100 78 100 12 21 30 70 68 12 57 68 82 100 100 100 100 100 100 100 93 100 83
75 93 100 100 89 97 100 100 100 100 100 100 100 100 100 100 100 100 100 100 100 100 100 100 98 100 100 95 97 96 70 86 69 100 100 100 100 100 100 100 100 100 100
5 0 53 83 100 100 100 100 100 100 100 100 100 100 100 100 100 100 73 94 48 78 77 93 97 100 97 38 71 20 32 16 46 100 100 100 100 100 100 100 100 100 100
53 20 1 0 0 30 100 94 33 19 44 32 28 26 6 4 5 44 31 2 6 1 4 71 67 7 4 10 94 100 42 76 96 81 99 100 100 100 100 100 100 100 100
4 5 5 5 1 0 0 2 65 96 32 86 36 7 5 5 0 0 5 2 0 0 4 0 5 70 18 5 2 4 5 5 35 82 50 92 100 100 88 98 100 100 100
0 0 0 0 0 0 0 0 0 0 11 75 64 43 82 61 62 28 5 5 5 0 0 0 0 0 2 5 5 5 27 5 5 56 72 100 100 100 100 100 100 100 100
1 0 0 0 0 0 0 0 0 0 0 0 0 0 0 1 2 0 5 17 5 4 4 0 0 0 0 3 7 5 6 5 5 11 20 56 58 98 100 100 85 100 100
0 0 0 0 0 0 0 0 0 0 0 0 0 0 0 0 0 5 5 5 5 5 3 0 0 0 0 0 5 5 46 5 5 3 0 0 0 34 27 89 100 100 87
0 0 0 0 0 0 0 0 0 0 0 0 0 2 0 0 4 5 6 5 4 5 5 5 3 0 7 0 5 5 5 5 10 5 2 9 31 100 40 53 61 98 100
0 0 0 0 0 0 0 0 0 0 0 0 0 2 0 0 4 64 100 100 75 20 5 5 5 3 0 6 44 96 98 100 96 50 100 100 98 100 55 5 6 35 99
0 0 0 0 0 0 0 0 0 0 0 0 4 14 3 4 6 5 16 55 83 99 91 88 97 100 76 49 12 77 76 87 70 99 100 100 100 100 100 40 87 86 53
0 0 0 0 0 0 0 0 0 0 0 0 0 5 11 5 8 100 100 78 5 49 6 7 32 28 22 9 30 43 78 69 5 13 29 99 36 97 100 100 100 28 51
0 0 0 0 0 0 0 0 0 5 2 2 5 5 5 5 16 6 40 76 46 44 10 12 20 74 5 7 12 31 6 11 18 5 5 5 5 5 13 61 84 32 100
0 0 0 0 0 0 1 5 3 4 2 5 5 5 5 5 5 6 46 80 94 64 15 11 5 7 7 72 33 69 96 5 5 5 5 7 5 6 5 5 5 5 5
0 0 0 0 0 2 0 0 5 5 5 10 20 28 86 100 100 19 5 5 5 10 6 68 84 80 47 44 28 58 48 73 91 45 5 5 5 38 61 5 5 5 2
0 0 2 0 0 1 5 5 5 6 30 90 50 46 7 5 5 5 50 60 9 5 52 54 82 83 81 76 82 89 66 91 62 29 69 8 30 52 68 92 5 3 0
2 0 0 0 1 5 5 36 72 11 17 5 54 98 100 94 78 82 47 91 100 100 100 79 93 100 92 93 93 91 96 100 100 96 100 100 100 100 100 98 95 7 0
2 4 0 2 4 5 8 17 5 48 16 5 37 44 84 94 100 100 100 100 100 100 100 100 100 100 100 100 100 100 100 100 100 100 100 100 100 100 100 100 100 100 4
5 2 4 16 56 9 5 88 80 92 90 100 92 100 100 100 100 100 100 100 100 100 100 100 100 100 100 100 100 100 100 82 75 99 100 100 100 100 100 100 100 100 5
5 18 46 5 5 12 67 92 100 99 99 100 100 100 100 100 100 100 100 100 69 78 54 58 94 100 98 100 100 98 98 99 100 100 100 100 100 100 99 98 80 42 5
9 5 32 78 76 80 87 100 100 100 100 100 100 100 100 100 100 100 99 98 89 75 100 96 94 21 1 0 3 68 22 0 30 41 76 100 99 100 96 99 94 32 75